Location: Dannhausen
(51.8650°N, 10.1026°E)
Time: 08:00:19
(UTC+00:00)

SPOT 3 Rocket - Pass Details

Date: 09 April 2020
Orbit: 778 x 795 km, 98.8° (Epoch: 24 May)

Event Time Altitude Azimuth Distance (km) Brightness Sun altitude
Exits shadow 19:22:44 - 168° (SSE) 3,052 6.2 -11.6°
Reaches altitude 10° 19:24:29 10° 170° (S) 2,356 5.7 -11.8°
Maximum altitude 19:29:41 74° 255° (WSW) 826 3.8 -12.5°
Drops below altitude 10° 19:34:54 10° 342° (NNW) 2,363 6.8 -13.2°
Sets 19:37:15 0° 344° (NNW) 3,294 7.6 -13.5°
